Regional Weather Roundup
Issued by NWS Bismarck, ND

Home | Current Version | Previous Version | Text Only | Print | Product List | Glossary On
Versions: 1 2 3 4 5 6 7 8 9 10 11 12 13 14 15 16 17 18 19 20 21 22 23 24 25 26 27 28 29 30 31 32 33 34 35 36 37 38 39 40 41 42 43 44 45 46 47 48 49 50
000
ASUS43 KBIS 041802
RWRBIS

NWR BROADCAST TEXT
NATIONAL WEATHER SERVICE BISMARCK ND
1200 PM CST SUN DEC 04 2016

NOTE: "FAIR" INDICATES FEW OR NO CLOUDS BELOW 12,000 FEET WITH NO
SIGNIFICANT WEATHER AND/OR OBSTRUCTIONS TO VISIBILITY.


CITY           SKY/WX    TMP DP  RH WIND       PRES   REMARKS
WILLISTON      SUNNY     27  21  78 SW10      29.72F WCI  17
MINOT          CLOUDY    30  27  88 W15       29.69F WCI  19
MINOT AFB      CLOUDY    29  26  87 NW16      29.68F WCI  18
BISMARCK       SUNNY     32  24  72 W14       29.75F
DICKINSON      SUNNY     29  20  69 W16       29.71F WCI  17
GARRISON         N/A     28  22  78 W10       29.71F WCI  19
HETTINGER ARPT SUNNY     31  22  69 W7        29.77F
JAMESTOWN      CLOUDY    33  28  81 W14G22    29.70F
CARRINGTON     CLOUDY    30  28  93 W17       29.71F WCI  18
HAZEN          FAIR      27  19  74 W7        29.76S WCI  19
RUGBY            N/A     25  25 100 W17       29.68F WCI  11
STANLEY        FAIR      25  21  86 CALM      29.71F
TIOGA          FAIR      23  23 100 SW6       29.71F WCI  16
WATFORD CITY   FAIR      27  19  74 SW13      29.73F WCI  16
$$

CITY           SKY/WX    TMP DP  RH WIND       PRES   REMARKS
GRAND FORKS    CLOUDY    31  26  82 W15       29.68F
GRAND FORKS AF CLOUDY    30  26  85 W10       29.67F
DEVILS LAKE    LGT SNOW  28  25  88 W24       29.66F FOG     WCI  14
FARGO          CLOUDY    34  32  92 SW7       29.71F
GRAFTON          N/A     32  32 100 SW10      29.67F
GWINNER          N/A     36  32  87 W13       29.74S
LANGDON        CLOUDY    30  28  93 W16G23    29.62S FOG     WCI  19
$$

CITY           SKY/WX    TMP DP  RH WIND       PRES   REMARKS
ABERDEEN       MOSUNNY   38  30  73 W17       29.78F
MOBRIDGE       SUNNY     34  22  61 NW7       29.78F
BUFFALO          N/A     39  24  55 W18       29.70F
RAPID CITY     SUNNY     44  17  33 SW8       29.82F
GLASGOW        SUNNY     34  25  69 S9        29.66F
SIDNEY         SUNNY     30  22  72 SW8       29.73F
WOLF POINT     SUNNY     32  25  75 CALM      29.70F
GLENDIVE       SUNNY     33  22  63 S13       29.73F
MILES CITY     SUNNY     39  21  48 S7        29.73F
BAKER          SUNNY     35  22  58 SW12      29.75F
$$

CITY           SKY/WX    TMP DP  RH WIND       PRES   REMARKS
BILLINGS       CLOUDY    36  17  46 SW12      29.70F
GREAT FALLS    MOSUNNY   38  24  57 SW21G32   29.58F
$$




USA.gov is the U.S. government's official web portal to all federal, state and local government web resources and services.